Flag for U.S.A. Weather past 2 weeks in Green Bay, Wisconsin, U.S.A.

Now
74 °F

Passing clouds.


Feels Like: 77 °F
Forecast: 50 / 74 °F
Wind: 9 mph from South

Location: Austin Straubel International Airport

Current Time: Aug 27, 2015 at 4:28:34 PM

Latest Report: Aug 27, 2015 at 3:53 PM


Visibility: 10 mi

Pressure: 30.09 "Hg

Humidity: 57%

Dew point: 58 °F

Location of Green BayLocation

Historic Weather in Green Bay — Graph

°F

Green Bay temperature yesterday

Maximum temperature yesterday: 70 °F (at 2:53 PM)
Minimum temperature yesterday: 55 °F (at 11:53 PM)
Average temperature yesterday: 61 °F

Past Weeks' High & Low Weather Summary

 TemperatureHumidityPressure
High89 °F (Aug 14, 2:53 PM)100% (Aug 27, 7:53 AM)30.20 "Hg (Aug 27, 7:53 AM)
Low48 °F (Aug 27, 5:01 AM)48% (Aug 22, 5:53 PM)29.52 "Hg (Aug 19, 10:53 AM)
Average68 °F78%29.93 "Hg
* Reported Aug 12 2:53 PM — Aug 27 2:53 PM, Green Bay, Weather by CustomWeather, © 2015

Note: Actual official high and low records may vary slightly from our data, if they occured in-between our weather recording intervals... More about our weather records

Advertising

Green Bay weather history for previous 24 hours

 ConditionsComfort  
Time TempWeatherWind HumidityBarometerVisibility
2:53 PM
Thu, Aug 27
75 °FSunny.6 mph52%30.11 "Hg10 mi
1:53 PM74 °FScattered clouds.5 mph57%30.13 "Hg10 mi
12:53 PM73 °FPassing clouds.7 mph59%30.15 "Hg10 mi
11:53 AM70 °FSunny.No wind66%30.16 "Hg10 mi
10:53 AM63 °FPassing clouds.No wind84%30.18 "Hg10 mi
9:53 AM57 °FFog.No wind96%30.18 "Hg1 mi
8:53 AM55 °FFog.No wind96%30.17 "Hg0 mi
7:53 AM53 °FFog.No wind100%30.20 "Hg0 mi
6:53 AM50 °FFog.No wind96%30.19 "Hg0 mi
5:56 AM48 °FFog.5 mph96%30.17 "Hg1 mi
5:01 AM48 °FFog.No wind96%30.14 "Hg1 mi
3:58 AM50 °FFog.No wind93%30.14 "Hg1 mi
2:57 AM50 °FFog.5 mph96%30.13 "Hg2 mi
1:53 AM51 °FFog.No wind96%30.14 "Hg5 mi
12:53 AM53 °FClear.3 mph96%30.14 "Hg7 mi
11:53 PM
Wed, Aug 26
55 °FClear.3 mph93%30.14 "Hg8 mi
10:53 PM56 °FClear.6 mph90%30.15 "Hg9 mi
9:53 PM57 °FClear.6 mph90%30.15 "Hg10 mi
8:53 PM58 °FClear.6 mph90%30.13 "Hg10 mi
7:53 PM61 °FSunny.6 mph83%30.11 "Hg10 mi
6:53 PM66 °FSunny.6 mph73%30.11 "Hg10 mi
5:53 PM67 °FScattered clouds.5 mph71%30.12 "Hg10 mi
4:53 PM69 °FPartly sunny.3 mph61%30.12 "Hg10 mi
Weather by CustomWeather, © 2015

See weather overviewHow to use our weather pages